Location: Biharia
(46.4333°N, 22.8000°E)
Time: 06:11:36
(UTC+00:00)

Okean-O - Pass Details

Date: 01 June 2022
Orbit: 638 x 640 km, 98.1° (Epoch: 01 July)

Event Time Altitude Azimuth Distance (km) Brightness Sun altitude
Rises 19:26:58 0° 217° (SW) 2,933 5.9 -10.3°
Reaches altitude 10° 19:30:32 10° 248° (WSW) 2,031 5.5 -10.7°
Maximum altitude 19:32:19 12° 272° (W) 1,890 5.7 -10.9°
Drops below altitude 10° 19:34:06 10° 296° (WNW) 2,037 6.4 -11.1°
Sets 19:37:42 0° 326° (NNW) 2,953 8.2 -11.5°
